RH
40 46 52 48 48 52 59 67 56 47 40 42 37 36 35 36 60 55 52 72 65 46 36 32 35 42 34 33 44 44 42 36 30 31 28 26 23 22 18 17 18 19 21 26 32 40 41 37 41
53 53 48 55 55 67 70 77 68 58 40 40 39 35 31 31 45 48 56 67 46 42 49 59 75 69 63 58 48 39 30 25 26 26 24 21 19 17 14 14 16 20 20 23 27 32 38 50 42
47 58 60 55 46 63 78 87 69 56 55 49 41 33 32 44 57 73 66 46 52 65 69 68 63 68 58 45 38 32 29 27 25 23 20 17 14 13 12 13 16 20 21 26 35 38 41 51 63
38 42 49 50 46 48 67 86 77 75 55 36 35 38 57 67 91 63 46 64 96 100 86 91 75 53 41 37 40 37 32 27 23 19 16 14 12 12 12 13 16 26 25 35 37 36 35 46 63
34 39 51 44 41 46 56 74 74 73 53 33 42 54 82 99 66 56 74 100 99 94 88 70 56 44 44 43 36 29 28 28 23 18 15 14 13 14 14 15 16 25 32 31 29 32 31 36 48
27 26 30 34 39 52 58 68 77 72 34 34 42 71 96 70 59 79 100 100 86 76 62 48 41 44 40 35 38 41 38 25 20 17 14 14 17 19 18 19 22 21 26 26 25 26 27 32 50
29 26 21 26 36 45 68 71 72 59 33 39 72 90 69 57 74 96 100 100 85 52 38 33 34 38 42 48 46 41 27 23 19 16 15 16 17 18 19 19 20 21 21 21 18 13 15 21 37
23 20 23 26 29 38 50 46 43 34 33 59 90 74 63 78 90 100 100 85 53 42 36 38 47 48 49 46 38 24 19 17 14 14 15 16 15 17 19 18 16 18 18 19 16 12 15 23 31
18 17 18 20 25 33 34 33 27 38 62 93 92 70 78 84 100 100 79 59 52 38 51 51 45 46 36 30 25 20 18 15 14 14 12 14 16 16 16 16 15 14 14 16 15 11 15 26 25
17 18 21 22 22 26 28 31 45 64 88 79 75 81 84 100 100 92 71 52 46 59 52 44 44 42 35 34 27 26 17 15 13 13 13 13 13 13 13 11 12 12 8 9 11 10 19 60 40
35 32 34 45 49 44 44 53 80 81 72 92 88 95 100 100 87 74 47 52 58 57 58 59 47 43 42 41 36 26 16 13 14 14 13 11 9 9 9 7 8 8 8 9 10 10 15 100 100
61 63 67 65 71 78 81 74 78 91 100 97 93 100 99 82 72 52 65 68 66 72 67 57 48 48 44 34 27 18 12 11 11 12 9 8 8 8 7 7 8 8 9 10 11 10 12 66 99
72 77 80 83 78 84 95 100 100 100 100 100 100 100 90 68 69 81 80 80 80 65 55 52 55 45 37 27 16 12 12 12 10 9 8 9 9 9 8 8 8 8 9 9 10 11 12 16 82
86 86 89 97 100 100 100 100 100 100 100 100 100 95 81 79 84 86 90 79 71 61 67 59 42 35 20 14 11 11 10 10 8 8 9 9 9 8 7 7 6 7 7 8 9 12 11 13 85
97 98 100 100 100 97 89 94 100 100 100 99 90 82 79 86 88 84 79 77 67 68 57 37 30 16 13 13 12 11 8 8 9 9 8 7 6 6 6 6 6 5 6 6 8 10 12 13 41
100 100 100 98 100 100 100 100 100 100 100 88 86 99 100 95 89 86 82 78 66 46 29 23 16 12 13 12 11 10 9 11 10 8 8 7 6 5 5 6 7 5 4 6 7 9 12 12 40
100 100 99 100 100 100 100 100 100 91 96 100 100 100 96 96 81 86 85 64 44 26 22 13 11 12 12 12 11 12 12 10 9 9 9 8 6 5 4 5 6 5 3 5 6 8 10 11 15
100 100 100 100 100 100 100 100 100 100 100 100 100 99 100 98 82 83 71 50 28 28 13 11 13 12 12 12 14 13 10 10 11 10 9 7 6 4 4 4 5 5 3 4 5 7 9 10 12
100 100 100 100 100 100 100 100 100 100 100 100 100 100 98 96 82 77 51 32 27 14 12 14 12 13 13 15 13 11 12 13 11 10 8 6 5 3 3 4 4 4 4 4 5 6 8 9 12
100 100 100 100 100 100 100 100 96 100 100 99 100 100 93 90 77 55 31 28 18 12 13 14 14 16 16 12 11 15 14 13 11 10 7 6 4 3 3 3 4 4 4 4 4 6 8 9 12
100 100 100 100 100 100 100 100 100 100 99 99 96 89 88 71 48 25 22 19 13 12 13 15 17 17 12 12 16 16 18 18 18 15 9 5 4 3 3 4 4 4 4 4 4 6 7 9 12
100 100 100 100 100 100 100 100 100 100 100 94 85 77 63 39 26 21 17 15 12 13 14 17 18 12 13 17 19 20 21 22 20 13 7 4 4 4 3 4 4 4 5 5 5 6 8 9 12
89 97 100 100 100 100 100 100 99 85 81 74 61 54 39 22 21 18 15 12 13 14 17 21 15 13 18 20 22 24 24 26 21 13 5 4 4 3 3 3 4 5 5 5 5 6 8 8 11
83 85 98 100 100 99 96 93 82 71 58 44 37 28 22 21 21 15 13 13 15 21 22 16 14 18 22 25 25 27 30 27 21 10 5 4 4 3 3 3 3 5 5 5 6 6 7 8 12
77 76 70 76 84 79 77 74 68 40 26 24 23 24 28 23 17 14 13 16 20 22 14 14 18 24 27 28 32 32 31 26 18 10 5 4 4 3 3 3 3 4 5 6 6 6 7 9 11
62 57 57 59 73 64 56 45 28 21 16 17 26 34 28 22 15 14 16 24 23 14 16 19 24 28 31 33 34 34 30 26 18 10 5 4 3 3 3 3 3 4 6 6 6 6 7 9 11
46 40 39 42 45 40 31 26 22 15 16 25 32 37 24 16 15 17 21 24 15 15 20 24 28 32 32 34 36 34 32 26 22 10 5 4 3 3 3 3 3 4 5 6 7 7 7 8 11
31 28 29 26 28 24 20 16 14 18 24 49 43 26 18 16 16 18 24 16 15 21 24 30 30 32 32 35 34 35 31 27 25 12 5 4 3 3 3 4 4 4 4 7 7 8 8 8 11
23 21 20 18 18 16 13 12 19 37 52 42 26 18 16 18 18 22 16 16 22 22 34 31 31 32 31 32 36 35 31 29 27 16 6 4 4 3 3 4 4 4 4 6 7 8 9 9 11
24 18 17 13 12 12 14 20 36 64 51 30 18 17 18 20 22 15 16 22 23 35 34 30 30 40 37 35 35 34 32 31 26 21 8 4 4 3 3 4 4 4 4 4 6 7 9 10 11
Wind_Speed
31 32 31 31 30 30 28 26 25 27 30 34 37 39 41 43 43 42 43 46 49 52 54 57 59 62 66 67 69 71 72 73 75 77 80 80 81 82 83 79 77 74 72 71 66 60 61 58 57
31 30 32 32 31 31 29 28 29 32 35 39 42 45 46 47 46 46 47 51 54 56 57 59 62 66 69 72 74 76 79 81 80 82 85 86 85 82 82 81 80 76 75 72 71 61 55 53 51
34 33 33 34 33 32 32 32 32 35 39 45 46 49 48 49 49 49 49 49 53 59 63 63 67 69 71 73 77 81 83 87 88 91 91 90 88 87 85 81 77 78 75 69 62 57 50 45 47
36 36 36 37 36 37 35 36 39 42 43 45 47 47 48 49 51 51 52 55 59 64 64 67 70 72 76 78 81 84 88 92 93 93 93 92 91 91 87 79 73 71 71 63 61 56 52 43 38
39 39 39 40 38 36 37 40 42 43 45 46 48 49 49 51 52 54 57 60 64 65 68 71 74 77 78 82 86 90 95 97 99 98 99 100 95 89 84 78 71 67 65 65 61 55 53 45 39
43 41 40 41 42 43 43 44 45 45 48 49 50 50 51 53 55 58 62 66 68 70 72 75 77 78 82 88 92 100 105 105 105 106 106 101 95 90 84 79 68 62 60 60 58 56 53 45 39
47 45 43 43 43 42 43 46 47 48 48 50 52 52 54 56 59 62 68 70 73 76 79 81 84 88 93 95 101 104 106 107 108 108 104 100 95 91 87 75 70 64 58 58 57 53 50 46 42
46 47 46 45 45 44 43 43 47 49 50 52 50 54 57 61 62 68 73 75 79 82 84 89 92 95 98 103 105 108 109 110 111 106 100 96 93 87 84 81 73 68 65 59 63 52 49 48 43
44 44 43 43 42 42 42 45 49 50 52 52 54 58 61 63 68 73 77 81 83 87 91 94 97 101 104 107 111 113 116 115 112 105 98 93 91 90 87 84 79 71 66 64 58 54 50 47 47
38 39 37 39 41 41 45 48 49 51 52 55 58 61 64 69 73 76 80 82 85 89 95 97 102 108 111 114 116 119 118 113 111 103 100 99 96 89 86 84 84 75 64 58 57 53 52 41 46
38 40 41 40 41 44 47 49 49 52 55 58 61 65 68 73 77 80 86 88 91 96 101 105 110 116 117 119 121 122 118 111 106 106 106 102 95 92 83 75 70 72 67 55 54 52 53 58 47
39 39 40 41 42 44 46 48 52 56 59 62 63 67 74 77 80 86 88 92 97 102 105 110 115 118 122 125 124 118 113 111 112 110 108 103 94 85 82 79 71 69 68 59 56 55 55 62 64
44 44 43 43 44 47 50 53 56 59 62 65 68 73 77 79 85 88 91 95 101 106 112 117 120 120 125 126 117 111 111 114 113 107 101 98 96 92 89 83 78 68 68 64 59 57 59 63 66
48 48 48 49 51 53 55 58 60 62 65 68 73 78 80 84 88 92 95 101 106 112 118 120 114 124 123 112 113 113 116 113 107 106 103 98 94 92 90 87 78 72 69 67 64 63 63 65 75
52 53 52 53 55 56 58 60 64 66 70 74 77 81 85 88 91 95 100 104 110 115 119 112 121 118 111 113 115 117 112 108 108 106 103 99 94 87 81 78 77 72 68 69 68 65 68 70 73
55 55 55 56 57 60 62 64 68 72 76 78 82 85 88 91 94 97 103 109 113 114 108 110 112 110 115 116 116 111 110 110 108 107 104 98 93 82 72 67 69 71 67 69 71 68 72 76 83
60 59 59 61 62 65 67 70 73 76 79 81 85 88 91 92 97 101 106 111 109 103 106 107 110 112 115 113 111 111 110 110 109 103 99 94 88 76 65 60 62 69 59 61 70 70 74 77 80
64 62 64 65 66 67 71 75 77 79 82 85 88 90 92 96 101 104 109 110 98 107 103 108 110 113 110 109 109 110 111 106 101 94 91 89 81 69 56 54 55 59 55 53 67 71 77 81 84
70 67 67 68 70 73 76 77 80 82 83 84 87 90 95 99 105 107 105 98 103 104 107 109 113 108 107 104 106 106 99 96 92 90 90 88 80 62 48 43 43 48 49 48 66 73 79 85 86
73 73 73 72 74 76 77 78 81 81 83 86 89 94 98 101 104 105 99 96 102 102 106 110 104 102 101 103 102 92 91 89 91 91 92 89 77 62 50 37 35 39 41 48 63 75 81 87 90
75 76 75 75 76 77 79 79 81 83 87 90 94 98 101 108 97 93 92 96 99 101 104 99 98 97 99 95 86 84 86 88 89 90 90 81 69 57 46 33 29 32 36 44 53 79 85 90 94
78 78 78 77 77 78 80 83 85 89 91 95 97 101 104 96 87 84 91 96 96 100 96 94 91 96 90 79 78 79 81 83 85 86 84 74 57 48 40 30 26 29 34 40 50 77 88 92 99
80 79 79 79 80 81 83 86 89 93 95 97 98 101 94 84 76 86 91 90 95 92 89 87 92 89 75 74 74 75 79 81 83 81 78 67 53 43 34 25 24 27 32 40 48 72 90 94 100
82 81 82 84 83 85 87 87 89 91 94 93 87 80 77 71 80 92 89 89 87 82 83 87 83 70 68 69 71 73 75 78 78 77 72 61 50 39 31 22 20 26 33 40 49 66 91 96 102
84 85 86 87 85 83 84 84 87 76 69 71 67 62 63 72 88 87 84 81 77 77 82 75 65 61 63 65 66 70 73 76 75 74 68 57 47 37 28 20 19 25 33 41 50 61 86 99 105
83 80 76 77 76 76 74 73 60 61 59 51 56 62 68 80 86 81 76 70 72 78 69 59 57 57 58 61 66 70 74 77 76 73 66 53 43 35 26 18 17 23 33 41 52 61 81 99 107
73 72 69 68 69 67 60 58 59 56 50 51 57 64 72 80 78 71 67 67 73 67 55 53 52 52 56 61 67 71 75 77 79 75 65 52 42 32 24 16 14 20 32 42 52 62 75 96 108
65 62 59 56 53 53 53 53 48 44 48 53 59 67 78 74 68 64 62 69 64 49 48 45 46 52 58 62 68 72 76 79 82 76 67 54 43 32 22 15 12 17 29 42 51 63 72 92 105
55 53 48 49 49 50 48 36 39 44 49 56 62 74 71 62 58 57 65 58 43 42 40 44 49 56 62 65 71 74 78 81 83 79 69 57 45 34 23 14 11 14 24 38 50 61 73 87 105
48 51 48 41 38 34 32 32 38 45 52 58 71 67 57 53 52 60 55 39 36 36 38 45 51 61 67 71 74 79 81 84 85 83 73 59 47 36 25 15 10 13 20 32 46 58 73 86 103
Wind_Direction
239 244 250 261 263 270 275 280 287 295 299 301 305 304 303 302 300 300 305 308 305 306 305 307 309 311 311 310 312 314 313 313 312 311 310 311 309 308 307 303 299 296 294 293 291 290 288 286 284
243 247 251 257 259 266 270 283 289 294 298 300 300 301 302 302 300 303 306 304 305 306 307 309 310 311 312 313 313 312 312 312 311 310 310 309 309 307 306 303 300 296 294 294 294 294 290 289 283
243 247 254 255 259 264 274 281 283 285 291 295 297 300 300 298 301 303 303 304 306 307 307 309 310 309 311 311 312 312 311 311 310 310 309 308 306 306 305 301 297 295 295 295 293 291 289 285 282
245 245 250 254 257 263 268 274 278 281 290 292 292 293 297 299 302 304 305 305 306 306 307 306 307 310 311 311 311 311 310 309 307 307 306 305 305 304 302 298 295 293 294 291 291 290 288 281 274
249 249 250 253 255 260 267 272 277 279 286 290 291 295 298 300 303 304 303 304 304 305 306 309 309 310 310 309 308 309 308 308 307 308 308 307 305 301 297 294 290 288 287 286 285 282 280 277 269
251 254 256 257 258 263 266 270 276 278 284 288 290 293 295 298 302 303 305 305 306 307 308 309 309 308 306 306 309 311 311 311 310 310 308 306 303 300 297 293 287 287 283 282 279 276 274 271 262
251 254 258 260 261 263 266 269 272 279 287 288 289 293 296 299 301 304 304 304 306 308 309 310 309 308 310 309 308 308 308 308 309 309 306 304 301 296 294 291 288 283 283 285 281 275 271 263 257
253 252 255 259 260 261 265 272 276 281 288 285 292 295 296 300 302 304 302 304 306 311 312 311 310 310 309 308 308 307 307 309 310 307 302 298 297 295 292 290 287 284 279 276 280 270 262 258 253
259 258 258 261 266 268 271 274 281 283 282 290 292 293 298 302 304 301 303 305 307 309 309 309 309 309 309 309 308 309 312 312 309 305 299 296 295 295 293 290 288 284 279 277 272 266 252 250 248
262 261 263 266 268 271 275 279 280 281 287 289 292 297 301 302 300 301 305 307 307 307 308 308 309 311 310 309 311 313 312 308 305 299 294 296 295 291 289 290 287 285 279 272 265 257 244 242 249
260 263 265 267 270 273 275 276 281 285 288 291 296 302 301 300 300 304 306 307 307 308 308 309 311 313 313 313 312 312 308 303 299 299 298 298 299 295 293 287 282 281 275 264 255 245 234 211 236
263 266 267 269 273 276 278 280 282 287 289 293 298 299 299 301 305 304 305 306 308 308 309 310 312 314 314 312 310 308 306 302 304 304 305 303 301 296 292 289 283 276 272 264 252 239 228 212 211
261 264 268 271 273 275 276 281 284 288 291 295 298 299 301 305 304 305 306 307 308 308 310 312 314 314 312 311 309 306 305 306 307 307 306 303 300 297 293 287 281 272 266 258 248 239 227 218 208
260 263 266 270 273 277 280 283 287 289 293 295 298 301 302 302 304 305 307 307 308 310 313 315 313 311 311 310 308 309 308 309 309 308 305 302 300 295 291 286 277 268 261 253 244 234 226 216 206
263 265 270 273 275 278 281 285 288 291 294 295 298 300 301 302 304 306 307 308 310 313 316 313 312 313 310 310 308 309 313 311 309 308 307 304 302 298 293 284 276 266 253 245 239 229 224 216 201
264 267 270 274 278 279 283 288 291 292 294 296 297 300 301 303 305 307 308 310 315 316 313 312 312 312 310 311 312 313 313 313 311 311 310 307 305 301 293 281 269 264 252 237 231 222 219 215 204
264 267 271 275 279 283 287 289 289 291 294 297 299 301 303 305 307 310 312 315 315 314 313 314 312 310 310 313 314 314 314 314 314 314 312 309 307 304 293 281 266 261 252 233 224 218 213 211 206
266 271 274 276 279 283 285 287 289 292 294 298 301 303 305 307 308 311 313 315 313 313 314 312 312 312 315 314 316 316 317 316 315 315 312 311 312 306 295 282 268 260 252 229 219 212 208 208 203
264 267 270 274 278 281 282 286 290 293 297 301 302 305 306 308 308 312 313 313 313 316 314 313 313 317 316 316 317 317 317 316 316 317 317 318 318 312 303 291 273 259 247 229 212 209 205 204 199
262 267 268 271 274 280 284 289 292 296 298 302 304 305 308 309 312 311 311 311 316 317 313 314 317 316 317 319 319 319 317 320 321 322 321 322 320 315 310 296 270 256 243 227 212 205 201 201 197
265 268 272 275 279 284 288 291 295 298 300 302 304 307 309 310 310 309 310 315 316 313 314 317 316 318 320 320 321 322 324 325 326 324 322 322 318 314 309 295 272 253 237 225 212 204 198 198 195
269 273 276 278 282 286 290 294 296 298 300 303 305 306 308 310 306 313 317 315 314 312 317 314 318 320 322 323 325 327 329 330 330 325 324 323 319 315 307 291 267 249 232 220 209 201 196 196 193
268 272 276 280 284 287 290 293 296 299 301 302 305 305 307 305 314 317 316 315 314 316 314 318 320 322 325 328 329 332 335 336 334 329 327 327 324 320 310 292 261 241 226 215 205 198 196 195 192
267 271 274 278 281 286 291 294 297 299 299 303 305 304 303 312 317 318 315 315 316 315 318 320 323 328 332 336 336 338 341 341 339 333 333 331 328 323 313 294 258 232 219 211 202 197 196 195 192
265 268 272 276 281 286 289 293 296 304 304 303 304 306 314 317 316 315 315 316 315 319 322 324 327 335 337 342 345 346 347 345 343 339 338 335 330 327 313 292 262 228 216 207 201 197 196 195 192
266 271 275 280 282 287 292 295 299 302 302 303 308 316 314 315 316 315 316 317 320 322 326 328 338 340 345 351 352 352 351 352 349 345 342 340 333 330 319 299 260 228 214 205 201 197 194 194 192
270 273 279 283 284 287 292 294 296 299 302 310 313 314 314 316 316 315 318 320 323 327 330 340 344 349 355 358 357 356 357 357 355 350 347 346 340 337 325 308 263 228 213 205 200 198 195 194 192
273 277 282 284 285 288 293 295 297 302 312 312 311 315 316 317 315 318 320 323 326 329 343 349 359 3 4 2 2 1 1 2 1 356 353 351 348 343 336 316 273 229 211 205 200 199 195 194 194
275 278 280 284 286 288 294 297 299 301 308 310 314 316 318 314 317 322 323 328 330 345 354 2 6 10 12 10 9 6 6 6 5 2 358 357 353 347 344 326 284 236 213 205 201 200 196 195 194
273 280 283 291 293 289 295 306 297 298 305 311 316 313 317 316 325 324 329 332 345 0 10 12 16 25 22 18 15 13 11 9 9 7 2 3 359 352 349 340 296 247 216 207 203 200 197 196 196